BESCHREIBUNG;WERT
NAME MESSUNG;Recording-20022019-122320;;
DATUM (SS:MM:SS);20.02.19 12:23:20;;
ZEIT (SS:MM:SS);00:10:47;;
MAXIMUM;33.65 °C;;
MINIMUM;31.71 °C;;
DIFFERENZ MIN/MAX;1.94 °C;;
DURCHSCHNITT SESSION;33.38 °C;;
ZUNAHME (SS:MM:SS);00:02:07;;
STETIG (SS:MM:SS);00:01:22;;
ABNAHME (SS:MM:SS);00:07:17;;
;;;
;;;
STATISTIK;;;
SEKUNDE;CELSIUS;ZEITSTEMPEL;MARKIERUNG
0.0;31.77;12:23:20:737;
1.0;31.81;12:23:21:737;
2.0;31.86;12:23:22:737;
3.0;31.91;12:23:23:737;
4.0;31.94;12:23:24:737;
5.0;31.98;12:23:25:737;
6.0;32.02;12:23:26:737;
7.0;32.05;12:23:27:737;
8.0;32.09;12:23:28:737;
9.0;32.12;12:23:29:737;
10.0;32.15;12:23:30:737;
11.0;32.18;12:23:31:737;
12.0;32.21;12:23:32:737;
13.0;32.25;12:23:33:737;
14.0;32.27;12:23:34:737;
15.0;32.30;12:23:35:737;
16.0;32.33;12:23:36:737;
17.0;32.35;12:23:37:737;
18.0;32.38;12:23:38:737;
19.0;32.40;12:23:39:737;
20.0;32.42;12:23:40:737;
21.0;32.47;12:23:41:737;
22.0;32.48;12:23:42:737;
23.0;32.51;12:23:43:737;
24.0;32.53;12:23:44:737;
25.0;32.54;12:23:45:737;
26.0;32.57;12:23:46:737;
27.0;32.59;12:23:47:737;
28.0;32.61;12:23:48:737;
29.0;32.62;12:23:49:737;
30.0;32.64;12:23:50:737;
31.0;32.66;12:23:51:737;
32.0;32.68;12:23:52:737;
33.0;32.70;12:23:53:737;
34.0;32.72;12:23:54:737;
35.0;32.73;12:23:55:737;
36.0;32.74;12:23:56:737;
37.0;32.76;12:23:57:737;
38.0;32.78;12:23:58:737;
39.0;32.79;12:23:59:737;
40.0;32.81;12:24:00:737;
41.0;32.81;12:24:01:737;
42.0;32.82;12:24:02:737;
43.0;32.83;12:24:03:737;
44.0;32.84;12:24:04:737;
45.0;32.85;12:24:05:737;
46.0;32.86;12:24:06:737;
47.0;32.88;12:24:07:737;
48.0;32.88;12:24:08:737;
49.0;32.90;12:24:09:737;
50.0;32.91;12:24:10:737;
51.0;32.91;12:24:11:737;
52.0;32.92;12:24:12:737;
53.0;32.93;12:24:13:737;
54.0;32.95;12:24:14:737;
55.0;32.95;12:24:15:737;
56.0;32.95;12:24:16:737;
57.0;32.96;12:24:17:737;
58.0;32.97;12:24:18:737;
59.0;32.98;12:24:19:737;
60.0;32.98;12:24:20:737;
61.0;33.00;12:24:21:737;
62.0;33.00;12:24:22:737;
63.0;33.00;12:24:23:737;
64.0;33.00;12:24:24:737;
65.0;33.02;12:24:25:737;
66.0;33.02;12:24:26:737;
67.0;33.02;12:24:27:737;
68.0;33.02;12:24:28:737;
69.0;33.03;12:24:29:737;
70.0;33.03;12:24:30:737;
71.0;33.03;12:24:31:737;
72.0;33.03;12:24:32:737;
73.0;33.03;12:24:33:737;
74.0;33.03;12:24:34:737;
75.0;33.04;12:24:35:737;
76.0;33.04;12:24:36:737;
77.0;33.05;12:24:37:737;
78.0;33.05;12:24:38:737;
79.0;33.05;12:24:39:737;
80.0;33.05;12:24:40:737;
81.0;33.06;12:24:41:737;
82.0;33.06;12:24:42:737;
83.0;33.07;12:24:43:737;
84.0;33.07;12:24:44:737;
85.0;33.07;12:24:45:737;
86.0;33.08;12:24:46:737;
87.0;33.09;12:24:47:737;
88.0;33.09;12:24:48:737;
89.0;33.09;12:24:49:737;
90.0;33.10;12:24:50:737;
91.0;33.10;12:24:51:737;
92.0;33.11;12:24:52:737;
93.0;33.11;12:24:53:737;
94.0;33.12;12:24:54:737;
95.0;33.12;12:24:55:737;
96.0;33.12;12:24:56:737;
97.0;33.12;12:24:57:737;
98.0;33.12;12:24:58:737;
99.0;33.12;12:24:59:737;
100.0;33.13;12:25:00:737;
101.0;33.13;12:25:01:737;
102.0;33.14;12:25:02:737;
103.0;33.14;12:25:03:737;
104.0;33.14;12:25:04:737;
105.0;33.14;12:25:05:737;
106.0;33.14;12:25:06:737;
107.0;33.14;12:25:07:737;
108.0;33.14;12:25:08:737;
109.0;33.15;12:25:09:737;
110.0;33.15;12:25:10:737;
111.0;33.16;12:25:11:737;
112.0;33.16;12:25:12:737;
113.0;33.16;12:25:13:737;
114.0;33.16;12:25:14:737;
115.0;33.16;12:25:15:737;
116.0;33.17;12:25:16:737;
117.0;33.17;12:25:17:737;
118.0;33.17;12:25:18:737;
119.0;33.19;12:25:19:737;
120.0;33.19;12:25:20:737;
121.0;33.19;12:25:21:737;
122.0;33.20;12:25:22:737;
123.0;33.21;12:25:23:737;
124.0;33.21;12:25:24:737;
125.0;33.21;12:25:25:737;
126.0;33.22;12:25:26:737;
127.0;33.22;12:25:27:737;
128.0;33.23;12:25:28:737;
129.0;33.22;12:25:29:737;
130.0;33.23;12:25:30:737;
131.0;33.24;12:25:31:737;
132.0;33.25;12:25:32:737;
133.0;33.25;12:25:33:737;
134.0;33.25;12:25:34:737;
135.0;33.25;12:25:35:737;
136.0;33.26;12:25:36:737;
137.0;33.27;12:25:37:737;
138.0;33.26;12:25:38:737;
139.0;33.27;12:25:39:737;
140.0;33.27;12:25:40:737;
141.0;33.27;12:25:41:737;
142.0;33.27;12:25:42:737;
143.0;33.27;12:25:43:737;
144.0;33.28;12:25:44:737;
145.0;33.28;12:25:45:737;
146.0;33.28;12:25:46:737;
147.0;33.28;12:25:47:737;
148.0;33.28;12:25:48:737;
149.0;33.28;12:25:49:737;
150.0;33.28;12:25:50:737;
151.0;33.28;12:25:51:737;
152.0;33.28;12:25:52:737;
153.0;33.29;12:25:53:737;
154.0;33.28;12:25:54:737;
155.0;33.28;12:25:55:737;
156.0;33.28;12:25:56:737;
157.0;33.30;12:25:57:737;
158.0;33.30;12:25:58:737;
159.0;33.31;12:25:59:737;
160.0;33.31;12:26:00:737;
161.0;33.32;12:26:01:737;
162.0;33.31;12:26:02:737;
163.0;33.31;12:26:03:737;
164.0;33.31;12:26:04:737;
165.0;33.32;12:26:05:737;
166.0;33.34;12:26:06:737;
167.0;33.34;12:26:07:737;
168.0;33.34;12:26:08:737;
169.0;33.33;12:26:09:737;
170.0;33.34;12:26:10:737;
171.0;33.34;12:26:11:737;
172.0;33.35;12:26:12:737;
173.0;33.36;12:26:13:737;
174.0;33.36;12:26:14:737;
175.0;33.37;12:26:15:737;
176.0;33.37;12:26:16:737;
177.0;33.38;12:26:17:737;
178.0;33.38;12:26:18:737;
179.0;33.38;12:26:19:737;
180.0;33.38;12:26:20:737;
181.0;33.38;12:26:21:737;
182.0;33.39;12:26:22:737;
183.0;33.39;12:26:23:737;
184.0;33.39;12:26:24:737;
185.0;33.39;12:26:25:737;
186.0;33.41;12:26:26:737;
187.0;33.41;12:26:27:737;
188.0;33.42;12:26:28:737;
189.0;33.43;12:26:29:737;
190.0;33.42;12:26:30:737;
191.0;33.43;12:26:31:737;
192.0;33.44;12:26:32:737;
193.0;33.44;12:26:33:737;
194.0;33.44;12:26:34:737;
195.0;33.45;12:26:35:737;
196.0;33.45;12:26:36:737;
197.0;33.46;12:26:37:737;
198.0;33.47;12:26:38:737;
199.0;33.47;12:26:39:737;
200.0;33.47;12:26:40:737;
201.0;33.47;12:26:41:737;
202.0;33.47;12:26:42:737;
203.0;33.48;12:26:43:737;
204.0;33.48;12:26:44:737;
205.0;33.49;12:26:45:737;
206.0;33.50;12:26:46:737;
207.0;33.50;12:26:47:737;
208.0;33.50;12:26:48:737;
209.0;33.51;12:26:49:737;
210.0;33.52;12:26:50:737;
211.0;33.52;12:26:51:737;
212.0;33.52;12:26:52:737;
213.0;33.53;12:26:53:737;
214.0;33.53;12:26:54:737;
215.0;33.53;12:26:55:737;
216.0;33.53;12:26:56:737;
217.0;33.53;12:26:57:737;
218.0;33.53;12:26:58:737;
219.0;33.54;12:26:59:737;
220.0;33.54;12:27:00:737;
221.0;33.54;12:27:01:737;
222.0;33.55;12:27:02:737;
223.0;33.55;12:27:03:737;
224.0;33.55;12:27:04:737;
225.0;33.55;12:27:05:737;
226.0;33.56;12:27:06:737;
227.0;33.56;12:27:07:737;
228.0;33.56;12:27:08:737;
229.0;33.56;12:27:09:737;
230.0;33.57;12:27:10:737;
231.0;33.57;12:27:11:737;
232.0;33.57;12:27:12:737;
233.0;33.56;12:27:13:737;
234.0;33.57;12:27:14:737;
235.0;33.56;12:27:15:737;
236.0;33.57;12:27:16:737;
237.0;33.57;12:27:17:737;
238.0;33.56;12:27:18:737;
239.0;33.57;12:27:19:737;
240.0;33.58;12:27:20:737;
241.0;33.56;12:27:21:737;
242.0;33.57;12:27:22:737;
243.0;33.57;12:27:23:737;
244.0;33.57;12:27:24:737;
245.0;33.56;12:27:25:737;
246.0;33.56;12:27:26:737;
247.0;33.57;12:27:27:737;
248.0;33.56;12:27:28:737;
249.0;33.57;12:27:29:737;
250.0;33.56;12:27:30:737;
251.0;33.56;12:27:31:737;
252.0;33.56;12:27:32:737;
253.0;33.57;12:27:33:737;
254.0;33.57;12:27:34:737;
255.0;33.56;12:27:35:737;
256.0;33.56;12:27:36:737;
257.0;33.56;12:27:37:737;
258.0;33.56;12:27:38:737;
259.0;33.56;12:27:39:737;
260.0;33.57;12:27:40:737;
261.0;33.57;12:27:41:737;
262.0;33.57;12:27:42:737;
263.0;33.56;12:27:43:737;
264.0;33.57;12:27:44:737;
265.0;33.57;12:27:45:737;
266.0;33.57;12:27:46:737;
267.0;33.57;12:27:47:737;
268.0;33.57;12:27:48:737;
269.0;33.57;12:27:49:737;
270.0;33.57;12:27:50:737;
271.0;33.57;12:27:51:737;
272.0;33.57;12:27:52:737;
273.0;33.57;12:27:53:737;
274.0;33.57;12:27:54:737;
275.0;33.58;12:27:55:737;
276.0;33.58;12:27:56:737;
277.0;33.58;12:27:57:737;
278.0;33.57;12:27:58:737;
279.0;33.58;12:27:59:737;
280.0;33.57;12:28:00:737;
281.0;33.57;12:28:01:737;
282.0;33.57;12:28:02:737;
283.0;33.57;12:28:03:737;
284.0;33.58;12:28:04:737;
285.0;33.58;12:28:05:737;
286.0;33.59;12:28:06:737;
287.0;33.59;12:28:07:737;
288.0;33.58;12:28:08:737;
289.0;33.59;12:28:09:737;
290.0;33.59;12:28:10:737;
291.0;33.59;12:28:11:737;
292.0;33.59;12:28:12:737;
293.0;33.59;12:28:13:737;
294.0;33.59;12:28:14:737;
295.0;33.59;12:28:15:737;
296.0;33.60;12:28:16:737;
297.0;33.61;12:28:17:737;
298.0;33.60;12:28:18:737;
299.0;33.61;12:28:19:737;
300.0;33.61;12:28:20:737;
301.0;33.61;12:28:21:737;
302.0;33.61;12:28:22:737;
303.0;33.61;12:28:23:737;
304.0;33.61;12:28:24:737;
305.0;33.61;12:28:25:737;
306.0;33.62;12:28:26:737;
307.0;33.61;12:28:27:737;
308.0;33.62;12:28:28:737;
309.0;33.63;12:28:29:737;
310.0;33.63;12:28:30:737;
311.0;33.63;12:28:31:737;
312.0;33.63;12:28:32:737;
313.0;33.63;12:28:33:737;
314.0;33.64;12:28:34:737;
315.0;33.63;12:28:35:737;
316.0;33.63;12:28:36:737;
317.0;33.64;12:28:37:737;
318.0;33.64;12:28:38:737;
319.0;33.64;12:28:39:737;
320.0;33.64;12:28:40:737;
321.0;33.63;12:28:41:737;
322.0;33.64;12:28:42:737;
323.0;33.64;12:28:43:737;
324.0;33.64;12:28:44:737;
325.0;33.64;12:28:45:737;
326.0;33.65;12:28:46:737;
327.0;33.64;12:28:47:737;
328.0;33.64;12:28:48:737;
329.0;33.64;12:28:49:737;
330.0;33.64;12:28:50:737;
331.0;33.65;12:28:51:737;
332.0;33.64;12:28:52:737;
333.0;33.64;12:28:53:737;
334.0;33.64;12:28:54:737;
335.0;33.64;12:28:55:737;
336.0;33.63;12:28:56:737;
337.0;33.63;12:28:57:737;
338.0;33.63;12:28:58:737;
339.0;33.63;12:28:59:737;
340.0;33.63;12:29:00:737;
341.0;33.63;12:29:01:737;
342.0;33.64;12:29:02:737;
343.0;33.63;12:29:03:737;
344.0;33.63;12:29:04:737;
345.0;33.63;12:29:05:737;
346.0;33.63;12:29:06:737;
347.0;33.63;12:29:07:737;
348.0;33.62;12:29:08:737;
349.0;33.62;12:29:09:737;
350.0;33.62;12:29:10:737;
351.0;33.62;12:29:11:737;
352.0;33.62;12:29:12:737;
353.0;33.62;12:29:13:737;
354.0;33.61;12:29:14:737;
355.0;33.61;12:29:15:737;
356.0;33.61;12:29:16:737;
357.0;33.60;12:29:17:737;
358.0;33.60;12:29:18:737;
359.0;33.60;12:29:19:737;
360.0;33.59;12:29:20:737;
361.0;33.59;12:29:21:737;
362.0;33.60;12:29:22:737;
363.0;33.60;12:29:23:737;
364.0;33.59;12:29:24:737;
365.0;33.59;12:29:25:737;
366.0;33.59;12:29:26:737;
367.0;33.59;12:29:27:737;
368.0;33.59;12:29:28:737;
369.0;33.59;12:29:29:737;
370.0;33.58;12:29:30:737;
371.0;33.58;12:29:31:737;
372.0;33.59;12:29:32:737;
373.0;33.58;12:29:33:737;
374.0;33.58;12:29:34:737;
375.0;33.58;12:29:35:737;
376.0;33.58;12:29:36:737;
377.0;33.57;12:29:37:737;
378.0;33.58;12:29:38:737;
379.0;33.58;12:29:39:737;
380.0;33.58;12:29:40:737;
381.0;33.57;12:29:41:737;
382.0;33.58;12:29:42:737;
383.0;33.58;12:29:43:737;
384.0;33.58;12:29:44:737;
385.0;33.58;12:29:45:737;
386.0;33.58;12:29:46:737;
387.0;33.58;12:29:47:737;
388.0;33.59;12:29:48:737;
389.0;33.59;12:29:49:737;
390.0;33.59;12:29:50:737;
391.0;33.59;12:29:51:737;
392.0;33.59;12:29:52:737;
393.0;33.59;12:29:53:737;
394.0;33.59;12:29:54:737;
395.0;33.60;12:29:55:737;
396.0;33.60;12:29:56:737;
397.0;33.59;12:29:57:737;
398.0;33.59;12:29:58:737;
399.0;33.60;12:29:59:737;
400.0;33.60;12:30:00:737;
401.0;33.60;12:30:01:737;
402.0;33.60;12:30:02:737;
403.0;33.60;12:30:03:737;
404.0;33.60;12:30:04:737;
405.0;33.60;12:30:05:737;
406.0;33.60;12:30:06:737;
407.0;33.60;12:30:07:737;
408.0;33.59;12:30:08:737;
409.0;33.59;12:30:09:737;
410.0;33.59;12:30:10:737;
411.0;33.59;12:30:11:737;
412.0;33.58;12:30:12:737;
413.0;33.59;12:30:13:737;
414.0;33.58;12:30:14:737;
415.0;33.59;12:30:15:737;
416.0;33.58;12:30:16:737;
417.0;33.58;12:30:17:737;
418.0;33.59;12:30:18:737;
419.0;33.59;12:30:19:737;
420.0;33.58;12:30:20:737;
421.0;33.58;12:30:21:737;
422.0;33.57;12:30:22:737;
423.0;33.57;12:30:23:737;
424.0;33.56;12:30:24:737;
425.0;33.56;12:30:25:737;
426.0;33.55;12:30:26:737;
427.0;33.56;12:30:27:737;
428.0;33.55;12:30:28:737;
429.0;33.55;12:30:29:737;
430.0;33.55;12:30:30:737;
431.0;33.55;12:30:31:737;
432.0;33.54;12:30:32:737;
433.0;33.54;12:30:33:737;
434.0;33.53;12:30:34:737;
435.0;33.53;12:30:35:737;
436.0;33.53;12:30:36:737;
437.0;33.52;12:30:37:737;
438.0;33.53;12:30:38:737;
439.0;33.53;12:30:39:737;
440.0;33.54;12:30:40:737;
441.0;33.53;12:30:41:737;
442.0;33.54;12:30:42:737;
443.0;33.54;12:30:43:737;
444.0;33.53;12:30:44:737;
445.0;33.53;12:30:45:737;
446.0;33.53;12:30:46:737;
447.0;33.53;12:30:47:737;
448.0;33.53;12:30:48:737;
449.0;33.53;12:30:49:737;
450.0;33.53;12:30:50:737;
451.0;33.53;12:30:51:737;
452.0;33.53;12:30:52:737;
453.0;33.53;12:30:53:737;
454.0;33.53;12:30:54:737;
455.0;33.53;12:30:55:737;
456.0;33.53;12:30:56:737;
457.0;33.53;12:30:57:737;
458.0;33.53;12:30:58:737;
459.0;33.54;12:30:59:737;
460.0;33.54;12:31:00:737;
461.0;33.54;12:31:01:737;
462.0;33.55;12:31:02:737;
463.0;33.55;12:31:03:737;
464.0;33.55;12:31:04:737;
465.0;33.56;12:31:05:737;
466.0;33.57;12:31:06:737;
467.0;33.57;12:31:07:737;
468.0;33.56;12:31:08:737;
469.0;33.57;12:31:09:737;
470.0;33.56;12:31:10:737;
471.0;33.57;12:31:11:737;
472.0;33.57;12:31:12:737;
473.0;33.57;12:31:13:737;
474.0;33.57;12:31:14:737;
475.0;33.57;12:31:15:737;
476.0;33.56;12:31:16:737;
477.0;33.56;12:31:17:737;
478.0;33.57;12:31:18:737;
479.0;33.57;12:31:19:737;
480.0;33.56;12:31:20:737;
481.0;33.57;12:31:21:737;
482.0;33.57;12:31:22:737;
483.0;33.57;12:31:23:737;
484.0;33.57;12:31:24:737;
485.0;33.57;12:31:25:737;
486.0;33.56;12:31:26:737;
487.0;33.57;12:31:27:737;
488.0;33.57;12:31:28:737;
489.0;33.58;12:31:29:737;
490.0;33.58;12:31:30:737;
491.0;33.57;12:31:31:737;
492.0;33.57;12:31:32:737;
493.0;33.57;12:31:33:737;
494.0;33.57;12:31:34:737;
495.0;33.57;12:31:35:737;
496.0;33.56;12:31:36:737;
497.0;33.55;12:31:37:737;
498.0;33.55;12:31:38:737;
499.0;33.56;12:31:39:737;
500.0;33.55;12:31:40:737;
501.0;33.55;12:31:41:737;
502.0;33.55;12:31:42:737;
503.0;33.55;12:31:43:737;
504.0;33.55;12:31:44:737;
505.0;33.56;12:31:45:737;
506.0;33.55;12:31:46:737;
507.0;33.55;12:31:47:737;
508.0;33.55;12:31:48:737;
509.0;33.55;12:31:49:737;
510.0;33.55;12:31:50:737;
511.0;33.55;12:31:51:737;
512.0;33.55;12:31:52:737;
513.0;33.55;12:31:53:737;
514.0;33.55;12:31:54:737;
515.0;33.55;12:31:55:737;
516.0;33.55;12:31:56:737;
517.0;33.56;12:31:57:737;
518.0;33.56;12:31:58:737;
519.0;33.56;12:31:59:737;
520.0;33.56;12:32:00:737;
521.0;33.56;12:32:01:737;
522.0;33.56;12:32:02:737;
523.0;33.56;12:32:03:737;
524.0;33.56;12:32:04:737;
525.0;33.56;12:32:05:737;
526.0;33.56;12:32:06:737;
527.0;33.56;12:32:07:737;
528.0;33.56;12:32:08:737;
529.0;33.56;12:32:09:737;
530.0;33.56;12:32:10:737;
531.0;33.57;12:32:11:737;
532.0;33.56;12:32:12:737;
533.0;33.57;12:32:13:737;
534.0;33.57;12:32:14:737;
535.0;33.57;12:32:15:737;
536.0;33.57;12:32:16:737;
537.0;33.56;12:32:17:737;
538.0;33.57;12:32:18:737;
539.0;33.56;12:32:19:737;
540.0;33.56;12:32:20:737;
541.0;33.55;12:32:21:737;
542.0;33.55;12:32:22:737;
543.0;33.55;12:32:23:737;
544.0;33.53;12:32:24:737;
545.0;33.54;12:32:25:737;
546.0;33.54;12:32:26:737;
547.0;33.54;12:32:27:737;
548.0;33.53;12:32:28:737;
549.0;33.53;12:32:29:737;
550.0;33.53;12:32:30:737;
551.0;33.53;12:32:31:737;
552.0;33.53;12:32:32:737;
553.0;33.52;12:32:33:737;
554.0;33.51;12:32:34:737;
555.0;33.51;12:32:35:737;
556.0;33.50;12:32:36:737;
557.0;33.50;12:32:37:737;
558.0;33.50;12:32:38:737;
559.0;33.51;12:32:39:737;
560.0;33.50;12:32:40:737;
561.0;33.50;12:32:41:737;
562.0;33.49;12:32:42:737;
563.0;33.49;12:32:43:737;
564.0;33.49;12:32:44:737;
565.0;33.48;12:32:45:737;
566.0;33.48;12:32:46:737;
567.0;33.47;12:32:47:737;
568.0;33.47;12:32:48:737;
569.0;33.47;12:32:49:737;
570.0;33.47;12:32:50:737;
571.0;33.46;12:32:51:737;
572.0;33.46;12:32:52:737;
573.0;33.46;12:32:53:737;
574.0;33.45;12:32:54:737;
575.0;33.44;12:32:55:737;
576.0;33.44;12:32:56:737;
577.0;33.44;12:32:57:737;
578.0;33.44;12:32:58:737;
579.0;33.44;12:32:59:737;
580.0;33.44;12:33:00:737;
581.0;33.44;12:33:01:737;
582.0;33.44;12:33:02:737;
583.0;33.43;12:33:03:737;
584.0;33.43;12:33:04:737;
585.0;33.43;12:33:05:737;
586.0;33.43;12:33:06:737;
587.0;33.43;12:33:07:737;
588.0;33.42;12:33:08:737;
589.0;33.42;12:33:09:737;
590.0;33.41;12:33:10:737;
591.0;33.42;12:33:11:737;
592.0;33.41;12:33:12:737;
593.0;33.41;12:33:13:737;
594.0;33.41;12:33:14:737;
595.0;33.41;12:33:15:737;
596.0;33.41;12:33:16:737;
597.0;33.42;12:33:17:737;
598.0;33.41;12:33:18:737;
599.0;33.41;12:33:19:737;
600.0;33.40;12:33:20:737;
601.0;33.41;12:33:21:737;
602.0;33.41;12:33:22:737;
603.0;33.41;12:33:23:737;
604.0;33.42;12:33:24:737;
605.0;33.41;12:33:25:737;
606.0;33.40;12:33:26:737;
607.0;33.40;12:33:27:737;
608.0;33.40;12:33:28:737;
609.0;33.40;12:33:29:737;
610.0;33.40;12:33:30:737;
611.0;33.41;12:33:31:737;
612.0;33.41;12:33:32:737;
613.0;33.41;12:33:33:737;
614.0;33.41;12:33:34:737;
615.0;33.41;12:33:35:737;
616.0;33.41;12:33:36:737;
617.0;33.42;12:33:37:737;
618.0;33.42;12:33:38:737;
619.0;33.42;12:33:39:737;
620.0;33.43;12:33:40:737;
621.0;33.44;12:33:41:737;
622.0;33.44;12:33:42:737;
623.0;33.44;12:33:43:737;
624.0;33.44;12:33:44:737;
625.0;33.44;12:33:45:737;
626.0;33.43;12:33:46:737;
627.0;33.43;12:33:47:737;
628.0;33.43;12:33:48:737;
629.0;33.43;12:33:49:737;
630.0;33.42;12:33:50:737;
631.0;33.42;12:33:51:737;
632.0;33.42;12:33:52:737;
633.0;33.41;12:33:53:737;
634.0;33.41;12:33:54:737;
635.0;33.42;12:33:55:737;
636.0;33.42;12:33:56:737;
637.0;33.42;12:33:57:737;
638.0;33.42;12:33:58:737;
639.0;33.42;12:33:59:737;
640.0;33.42;12:34:00:737;
641.0;33.42;12:34:01:737;
642.0;33.42;12:34:02:737;
643.0;33.43;12:34:03:737;
644.0;33.42;12:34:04:737;
645.0;33.43;12:34:05:737;
646.0;33.44;12:34:06:737;